Lyndonville, VT

5:50 PM EDT on August 25, 2016 (GMT -0400)
Lyndonville

Weather History for KCDA - March, 2013

Change the Weather History Date:

Friday, March 29, 2013

  Actual Average (K1V4) Record (K1V4)
Temperature  
Mean Temperature 40 °F 36 °F  
Max Temperature 46 °F 47 °F 82 °F (1946)
Min Temperature 35 °F 26 °F -10 °F (1974)
Degree Days  
Heating Degree Days 25 29  
Month to date heating degree days 1020  
Since 1 July heating degree days 6744  
Cooling Degree Days 0 0  
Month to date cooling degree days 0  
Year to date cooling degree days 0  
Moisture  
Dew Point 30 °F    
Average Humidity 72    
Maximum Humidity 86    
Minimum Humidity 47    
Precipitation  
Precipitation 0.00 in 0.09 in 1.05 in (1899)
Month to date precipitation 2.34  
Year to date precipitation 7.02  
Sea Level Pressure  
Sea Level Pressure 30.02 in    
Wind  
Wind Speed 4 mph (WNW)    
Max Wind Speed 15 mph    
Max Gust Speed 22 mph    
Visibility 10 miles    
Events Rain    
T = Trace of Precipitation, MM = Missing Value Source: NWS Daily Summary

Daily Weather History Graph

Daily Weather History Graph

Search for Another Location

Airport or City:

Trip Planner

Search our weather history database for the weather conditions in past years. The results will help you decide how hot, cold, wet, or windy it might be!

Date:

Astronomy

Mar. 29, 2013 Rise Set
Actual Time 6:34 AM EDT 7:12 PM EDT
Civil Twilight 6:04 AM EDT 7:41 PM EDT
Nautical Twilight 5:30 AM EDT 8:16 PM EDT
Astronomical Twilight 4:54 AM EDT 8:52 PM EDT
Moon 10:17 PM EDT (3/29) 7:34 AM EDT (3/29)
Length of Visible Light 13h 36m
Length of Day
12h 37m
Waning Gibbous, 93% of the Moon is Illuminated
Mar 29
Waning Gibbous
Apr 3
Last Quarter
Apr 10
New
Apr 18
First Quarter
Apr 25
Full

Hourly Weather History & Observations

Time (EDT) Temp. Windchill Dew Point Humidity Pressure Visibility Wind Dir Wind Speed Gust Speed Precip Events Conditions
12:15 AM 36.5 °F - 28.9 °F 74% 30.01 in 10.0 mi Calm Calm - N/A   Overcast
12:55 AM 36.9 °F - 29.3 °F 74% 30.02 in 10.0 mi Calm Calm - N/A   Overcast
1:15 AM 38.7 °F 35.2 °F 30.2 °F 72% 30.02 in 10.0 mi West 4.6 mph - N/A   Overcast
1:35 AM 38.1 °F 34.6 °F 30.9 °F 75% 30.02 in 10.0 mi WNW 4.6 mph - N/A   Overcast
1:55 AM 38.7 °F - 31.5 °F 75% 30.01 in 10.0 mi Calm Calm - N/A   Overcast
2:15 AM 37.4 °F - 31.1 °F 78% 30.01 in 10.0 mi Calm Calm - N/A   Overcast
2:35 AM 38.1 °F 35.7 °F 31.8 °F 78% 30.02 in 10.0 mi West 3.5 mph - N/A   Overcast
2:55 AM 37.9 °F - 32.0 °F 79% 30.01 in 10.0 mi Calm Calm - N/A   Overcast
3:15 AM 37.6 °F - 32.0 °F 80% 30.01 in 10.0 mi Calm Calm - N/A   Overcast
3:35 AM 37.4 °F 32.8 °F 32.0 °F 81% 30.01 in 10.0 mi West 5.8 mph - N/A   Overcast
3:55 AM 37.4 °F - 32.0 °F 81% 30.01 in 10.0 mi Calm Calm - N/A   Overcast
4:15 AM 36.9 °F 31.4 °F 32.0 °F 83% 30.01 in 10.0 mi West 6.9 mph - N/A Rain Rain
4:35 AM 36.7 °F 34.1 °F 32.4 °F 84% 30.01 in 10.0 mi NW 3.5 mph - N/A   Overcast
4:55 AM 36.5 °F 33.9 °F 32.2 °F 84% 30.01 in 10.0 mi NW 3.5 mph - N/A   Overcast
5:15 AM 36.7 °F - 32.4 °F 84% 30.01 in 10.0 mi Calm Calm - N/A   Overcast
5:35 AM 36.3 °F - 32.2 °F 85% 30.01 in 10.0 mi Calm Calm - N/A   Overcast
5:55 AM 36.0 °F - 32.0 °F 86% 30.02 in 10.0 mi Calm Calm - N/A   Overcast
6:15 AM 36.1 °F 33.5 °F 32.0 °F 85% 30.02 in 10.0 mi West 3.5 mph - N/A   Overcast
6:35 AM 36.1 °F 33.5 °F 32.4 °F 86% 30.02 in 10.0 mi West 3.5 mph - N/A   Overcast
6:55 AM 36.1 °F - 32.0 °F 85% 30.02 in 10.0 mi Calm Calm - N/A   Mostly Cloudy
7:15 AM 36.0 °F - 32.0 °F 86% 30.03 in 10.0 mi Calm Calm - N/A   Overcast
7:35 AM 35.8 °F - 32.0 °F 86% 30.03 in 10.0 mi Calm Calm - N/A   Overcast
7:55 AM 36.7 °F 34.1 °F 32.7 °F 86% 30.04 in 10.0 mi West 3.5 mph - N/A   Overcast
8:15 AM 37.0 °F 34.5 °F 32.5 °F 84% 30.04 in 10.0 mi West 3.5 mph - N/A   Overcast
8:35 AM 37.6 °F 35.1 °F 32.7 °F 83% 30.04 in 10.0 mi West 3.5 mph - N/A   Overcast
8:55 AM 37.8 °F 32.5 °F 32.9 °F 83% 30.04 in 10.0 mi WNW 6.9 mph - N/A   Overcast
9:15 AM 38.7 °F 32.4 °F 32.9 °F 80% 30.04 in 10.0 mi WNW 9.2 mph - N/A   Overcast
9:35 AM 38.5 °F 32.7 °F 33.3 °F 81% 30.04 in 10.0 mi WNW 8.1 mph - N/A   Overcast
9:55 AM 38.7 °F 34.3 °F 32.7 °F 79% 30.04 in 10.0 mi West 5.8 mph - N/A   Overcast
10:15 AM 38.3 °F 31.4 °F 32.7 °F 80% 30.05 in 7.0 mi WNW 10.4 mph - N/A Rain Rain
10:35 AM 37.8 °F 34.2 °F 33.8 °F 86% 30.05 in 10.0 mi WNW 4.6 mph - N/A Rain Light Rain
10:55 AM 38.7 °F 34.3 °F 34.0 °F 83% 30.05 in 10.0 mi WNW 5.8 mph - N/A   Overcast
11:15 AM 40.5 °F 35.1 °F 34.2 °F 78% 30.05 in 10.0 mi WNW 8.1 mph - N/A   Overcast
11:35 AM 42.1 °F 36.1 °F 34.0 °F 73% 30.04 in 10.0 mi West 10.4 mph - N/A   Mostly Cloudy
11:55 AM 43.7 °F 39.1 °F 33.3 °F 67% 30.03 in 10.0 mi WNW 8.1 mph - N/A   Overcast
12:15 PM 43.9 °F 38.8 °F 31.3 °F 61% 30.03 in 10.0 mi WNW 9.2 mph - N/A   Mostly Cloudy
12:35 PM 43.2 °F 37.9 °F 29.5 °F 59% 30.02 in 10.0 mi West 9.2 mph - N/A   Overcast
12:55 PM 43.3 °F 36.5 °F 29.3 °F 58% 30.02 in 10.0 mi West 13.8 mph 18.4 mph N/A   Overcast
1:15 PM 43.7 °F 37.7 °F 29.5 °F 57% 30.02 in 10.0 mi WNW 11.5 mph - N/A   Overcast
1:35 PM 43.7 °F 38.6 °F 28.9 °F 56% 30.01 in 10.0 mi NW 9.2 mph 16.1 mph N/A   Overcast
1:55 PM 40.8 °F 36.2 °F 29.3 °F 64% 30.01 in 7.0 mi NW 6.9 mph 17.3 mph N/A Rain Light Rain
2:15 PM 42.1 °F 36.1 °F 28.6 °F 59% 30.00 in 10.0 mi NW 10.4 mph - N/A   Overcast
2:35 PM 43.3 °F 38.1 °F 27.9 °F 54% 30.00 in 10.0 mi WNW 9.2 mph 18.4 mph N/A   Overcast
2:55 PM 44.4 °F 38.6 °F 28.4 °F 53% 29.99 in 10.0 mi WNW 11.5 mph 21.9 mph N/A   Mostly Cloudy
3:15 PM 42.1 °F 36.6 °F 27.5 °F 56% 29.99 in 10.0 mi West 9.2 mph - N/A   Overcast
3:35 PM 43.0 °F 39.5 °F 27.9 °F 55% 29.99 in 10.0 mi WNW 5.8 mph - N/A   Overcast
3:55 PM 45.9 °F 39.4 °F 26.6 °F 47% 29.98 in 10.0 mi West 15.0 mph 20.7 mph N/A   Mostly Cloudy
4:15 PM 43.0 °F 36.8 °F 26.4 °F 52% 29.98 in 10.0 mi NNW 11.5 mph 18.4 mph N/A   Overcast
4:35 PM 43.7 °F 38.1 °F 26.1 °F 50% 29.98 in 10.0 mi NW 10.4 mph - N/A   Overcast
4:55 PM 43.0 °F 38.8 °F 25.3 °F 50% 29.98 in 10.0 mi WNW 6.9 mph 16.1 mph N/A   Overcast
5:15 PM 42.3 °F 37.9 °F 26.8 °F 54% 29.99 in 10.0 mi WNW 6.9 mph - N/A   Overcast
5:35 PM 41.7 °F 34.4 °F 26.6 °F 55% 29.99 in 10.0 mi NW 13.8 mph 17.3 mph N/A   Overcast
5:55 PM 41.0 °F 36.4 °F 27.3 °F 58% 30.00 in 10.0 mi WNW 6.9 mph - N/A   Overcast
6:15 PM 41.0 °F 38.0 °F 27.5 °F 59% 30.00 in 10.0 mi West 4.6 mph - N/A   Overcast
6:35 PM 40.6 °F 34.8 °F 27.1 °F 59% 30.01 in 10.0 mi West 9.2 mph - N/A   Overcast
6:55 PM 39.7 °F 34.3 °F 27.5 °F 62% 30.01 in 10.0 mi NW 8.1 mph - N/A   Overcast
7:15 PM 39.7 °F 34.3 °F 27.1 °F 61% 30.01 in 10.0 mi NW 8.1 mph - N/A   Overcast
7:35 PM 39.6 °F 34.7 °F 27.0 °F 61% 30.02 in 10.0 mi WNW 6.9 mph - N/A   Overcast
7:55 PM 39.4 °F 34.5 °F 27.0 °F 61% 30.02 in 10.0 mi WNW 6.9 mph - N/A   Overcast
8:15 PM 38.8 °F 33.8 °F 27.1 °F 63% 30.02 in 10.0 mi WNW 6.9 mph - N/A   Overcast
8:35 PM 38.7 °F 35.2 °F 27.3 °F 64% 30.03 in 10.0 mi NW 4.6 mph - N/A   Overcast
8:55 PM 38.7 °F 36.3 °F 27.3 °F 64% 30.04 in 10.0 mi WNW 3.5 mph - N/A   Overcast
9:15 PM 37.9 °F 32.7 °F 27.7 °F 67% 30.04 in 10.0 mi NW 6.9 mph - N/A   Overcast
9:35 PM 37.8 °F 31.8 °F 29.3 °F 72% 30.05 in 10.0 mi NW 8.1 mph - N/A   Overcast
9:55 PM 36.9 °F 33.1 °F 30.0 °F 76% 30.05 in 10.0 mi WNW 4.6 mph - N/A   Mostly Cloudy
10:15 PM 36.9 °F 34.3 °F 30.2 °F 77% 30.05 in 10.0 mi NW 3.5 mph - N/A   Overcast
10:35 PM 36.5 °F 32.7 °F 30.9 °F 80% 30.05 in 10.0 mi WNW 4.6 mph - N/A Rain Light Rain
10:55 PM 35.8 °F 33.0 °F 30.9 °F 82% 30.05 in 10.0 mi NW 3.5 mph - N/A   Overcast
11:15 PM 35.4 °F - 30.9 °F 84% 30.05 in 10.0 mi Calm Calm - N/A   Overcast
11:35 PM 35.4 °F - 30.9 °F 84% 30.05 in 10.0 mi Calm Calm - N/A   Overcast
11:55 PM 35.2 °F - 30.2 °F 82% 30.04 in 10.0 mi Calm Calm - N/A   Overcast